Location: Barcelona
(41.3830°N, 2.1830°E)
Time: 13:23:33
(UTC+02:00)

OTV 5 (USA 277) - Visible Passes

Search period start: 20 June 2019 00:00
Search period end: 30 June 2019 00:00
Orbit: 310 x 325 km, 54.5° (Epoch: 08 May)

Date Brightness Start Highest point End Pass type
(mag) Time Alt. Az. Time Alt. Az. Time Alt. Az.
20 Jun ? 01:03:08 18° NW 01:03:26 18° NNW 01:05:29 10° NNE visible
20 Jun ? 23:42:46 36° WSW 23:43:39 64° NW 23:46:25 10° NE visible
21 Jun ? 01:17:38 10° NW 01:18:29 11° NNW 01:19:20 10° N visible
21 Jun ? 04:28:43 10° N 04:29:28 11° NNE 04:30:13 10° NE visible
21 Jun ? 22:21:58 10° S 22:24:14 23° SE 22:26:31 10° ENE visible
21 Jun ? 23:56:07 10° W 23:58:30 25° NNW 00:00:54 10° NNE visible
22 Jun ? 04:42:30 10° NNW 04:44:32 18° NNE 04:46:31 10° ENE visible
22 Jun ? 22:36:07 10° SW 22:38:50 72° SE 22:41:37 10° NE visible
23 Jun ? 00:11:55 10° WNW 00:13:29 14° NNW 00:15:04 10° N visible
23 Jun ? 04:56:50 10° NW 04:59:27 37° NE 05:02:02 10° ESE visible
23 Jun ? 22:51:00 10° WSW 22:53:37 38° NW 22:56:15 10° NE visible
24 Jun ? 03:38:01 10° N 03:39:34 14° NNE 03:41:06 10° ENE visible
24 Jun ? 05:11:28 10° NW 05:14:13 73° SW 05:16:56 10° SE visible
24 Jun ? 23:06:30 10° WNW 23:08:32 18° NNW 23:10:35 10° NNE visible
25 Jun ? 03:52:11 10° NNW 03:54:33 25° NNE 03:56:55 10° E visible
25 Jun ? 05:26:33 10° WNW 05:28:50 23° SW 05:31:05 10° S visible
25 Jun ? 23:22:46 10° NW 23:23:35 11° NNW 23:24:24 10° N visible
26 Jun ? 02:33:46 10° N 02:34:34 11° NNE 02:35:22 10° NE visible
26 Jun ? 04:06:39 10° NW 04:09:23 63° NE 04:12:07 10° ESE visible
26 Jun ? 22:01:14 10° W 22:03:36 25° NNW 22:05:59 10° NNE visible
27 Jun ? 02:47:35 10° NNW 02:49:37 18° NNE 02:50:15 17° NE visible
27 Jun ? 22:17:02 10° WNW 22:18:35 14° NNW 22:20:09 10° N visible
28 Jun ? 03:01:55 10° NW 03:02:31 15° NNW 03:02:31 15° NNW visible
29 Jun ? 01:43:06 10° N 01:44:40 14° NNE 01:44:43 14° NNE visible
